| time (UTC) | temp F | wind direction | speed knots | gust knots | rain 1hr in | rain 24hr in | rain mn in | humidity % | barometer mb |
| 20260504050651 | 57 | 80 | 1.7 | 2.6 | 0.00 | 0.00 | 0.00 | 57 | 1014.4 |
| 20260504050148 | 57 | 71 | 1.7 | 1.7 | 0.00 | 0.00 | 0.00 | 56 | 1014.1 |
| 20260504045646 | 58 | 56 | 1.7 | 1.7 | 0.00 | 0.00 | 0.00 | 55 | 1014.0 |
| 20260504045146 | 59 | 67 | 1.7 | 1.7 | 0.00 | 0.00 | 0.00 | 53 | 1014.0 |
| 20260504044644 | 59 | 81 | 0.0 | 2.6 | 0.00 | 0.00 | 0.00 | 53 | 1014.2 |
| 20260504044140 | 59 | 82 | 2.6 | 2.6 | 0.00 | 0.00 | 0.00 | 53 | 1014.1 |
| 20260504043637 | 59 | 65 | 0.9 | 2.6 | 0.00 | 0.00 | 0.00 | 52 | 1014.1 |
| 20260504043135 | 59 | 91 | 2.6 | 7.8 | 0.00 | 0.00 | 0.00 | 52 | 1014.0 |
| 20260504042632 | 60 | 85 | 1.7 | 2.6 | 0.00 | 0.00 | 0.00 | 52 | 1013.9 |
| 20260504042129 | 59 | 140 | 0.9 | 3.5 | 0.00 | 0.00 | 0.00 | 54 | 1014.0 |
| 20260504041624 | 60 | 59 | 1.7 | 2.6 | 0.00 | 0.00 | 0.00 | 53 | 1013.9 |
| 20260504041121 | 60 | 44 | 0.0 | 4.3 | 0.00 | 0.00 | 0.00 | 52 | 1013.7 |
| 20260504040618 | 60 | 129 | 9.6 | 12.2 | 0.00 | 0.00 | 0.00 | 51 | 1013.7 |
| 20260504040115 | 59 | 158 | 1.7 | 4.3 | 0.00 | 0.00 | 0.00 | 52 | 1013.7 |
| 20260504035612 | 59 | 93 | 0.9 | 1.7 | 0.00 | 0.00 | 0.00 | 54 | 1014.0 |
| 20260504035108 | 59 | 26 | 0.0 | 4.3 | 0.00 | 0.00 | 0.00 | 55 | 1014.0 |
| 20260504034606 | 57 | 109 | 2.6 | 4.3 | 0.00 | 0.00 | 0.00 | 55 | 1013.8 |
| 20260504034102 | 56 | 39 | 0.9 | 2.6 | 0.00 | 0.00 | 0.00 | 58 | 1014.0 |
| 20260504033600 | 56 | 75 | 1.7 | 2.6 | 0.00 | 0.00 | 0.00 | 57 | 1014.2 |
| 20260504033057 | 55 | 77 | 1.7 | 1.7 | 0.00 | 0.00 | 0.00 | 58 | 1014.2 |
| 20260504032554 | 54 | 88 | 1.7 | 1.7 | 0.00 | 0.00 | 0.00 | 62 | 1014.3 |
| 20260504032051 | 54 | 88 | 0.9 | 1.7 | 0.00 | 0.00 | 0.00 | 63 | 1014.3 |
| 20260504031548 | 54 | 86 | 1.7 | 1.7 | 0.00 | 0.00 | 0.00 | 64 | 1014.3 |
| 20260504031044 | 54 | 70 | 1.7 | 1.7 | 0.00 | 0.00 | 0.00 | 64 | 1014.4 |
| 20260504030542 | 54 | 76 | 1.7 | 2.6 | 0.00 | 0.00 | 0.00 | 62 | 1014.4 |
| 20260504030038 | 54 | 75 | 1.7 | 2.6 | 0.00 | 0.00 | 0.00 | 63 | 1014.5 |
| 20260504025535 | 54 | 67 | 1.7 | 2.6 | 0.00 | 0.00 | 0.00 | 63 | 1014.6 |
| 20260504025032 | 55 | 75 | 1.7 | 1.7 | 0.00 | 0.00 | 0.00 | 60 | 1014.6 |
| 20260504024529 | 55 | 81 | 1.7 | 2.6 | 0.00 | 0.00 | 0.00 | 60 | 1014.5 |
| 20260504024026 | 55 | 76 | 1.7 | 2.6 | 0.00 | 0.00 | 0.00 | 60 | 1014.7 |
| 20260504023522 | 55 | 80 | 1.7 | 2.6 | 0.00 | 0.00 | 0.00 | 60 | 1014.8 |
| 20260504023018 | 56 | 77 | 1.7 | 1.7 | 0.00 | 0.00 | 0.00 | 58 | 1014.5 |
| 20260504022514 | 56 | 82 | 1.7 | 2.6 | 0.00 | 0.00 | 0.00 | 58 | 1014.5 |
| 20260504022011 | 57 | 76 | 2.6 | 2.6 | 0.00 | 0.00 | 0.00 | 56 | 1014.5 |
| 20260504021509 | 57 | 83 | 1.7 | 2.6 | 0.00 | 0.00 | 0.00 | 56 | 1014.6 |
| 20260504021005 | 57 | 76 | 1.7 | 2.6 | 0.00 | 0.00 | 0.00 | 56 | 1014.4 |
| 20260504020502 | 58 | 76 | 1.7 | 2.6 | 0.00 | 0.00 | 0.00 | 55 | 1014.6 |
| 20260504015959 | 58 | 76 | 1.7 | 2.6 | 0.00 | 0.00 | 0.00 | 53 | 1014.4 |
| 20260504015455 | 59 | 64 | 1.7 | 2.6 | 0.00 | 0.00 | 0.00 | 53 | 1014.4 |
| 20260504014951 | 59 | 76 | 1.7 | 2.6 | 0.00 | 0.00 | 0.00 | 52 | 1014.3 |
| 20260504014447 | 59 | 89 | 1.7 | 1.7 | 0.00 | 0.00 | 0.00 | 51 | 1014.2 |
| 20260504013944 | 60 | 78 | 1.7 | 1.7 | 0.00 | 0.00 | 0.00 | 51 | 1014.0 |
| 20260504013443 | 61 | 81 | 1.7 | 1.7 | 0.00 | 0.00 | 0.00 | 50 | 1014.0 |
| 20260504012938 | 62 | 80 | 0.9 | 1.7 | 0.00 | 0.00 | 0.00 | 50 | 1013.8 |
| 20260504012436 | 62 | 82 | 1.7 | 1.7 | 0.00 | 0.00 | 0.00 | 46 | 1013.8 |
| 20260504011934 | 62 | 95 | 0.9 | 1.7 | 0.00 | 0.00 | 0.00 | 46 | 1013.8 |
| 20260504011430 | 62 | 77 | 1.7 | 1.7 | 0.00 | 0.00 | 0.00 | 47 | 1013.7 |
| 20260504010926 | 62 | 95 | 0.9 | 1.7 | 0.00 | 0.00 | 0.00 | 47 | 1013.7 |
| 20260504010422 | 62 | 87 | 1.7 | 1.7 | 0.00 | 0.00 | 0.00 | 49 | 1014.0 |
| 20260504005918 | 62 | 86 | 0.9 | 1.7 | 0.00 | 0.00 | 0.00 | 48 | 1013.9 |
| 20260504005415 | 62 | 67 | 0.9 | 2.6 | 0.00 | 0.00 | 0.00 | 47 | 1013.8 |
| 20260504004913 | 63 | 103 | 0.9 | 1.7 | 0.00 | 0.00 | 0.00 | 47 | 1013.7 |
| 20260504004411 | 63 | 80 | 0.9 | 1.7 | 0.00 | 0.00 | 0.00 | 45 | 1013.8 |
| 20260504003907 | 63 | 93 | 0.0 | 1.7 | 0.00 | 0.00 | 0.00 | 47 | 1013.8 |
| 20260504003404 | 64 | 95 | 0.9 | 1.7 | 0.00 | 0.00 | 0.00 | 46 | 1013.8 |
| 20260504002900 | 64 | 131 | 0.0 | 1.7 | 0.00 | 0.00 | 0.00 | 43 | 1013.9 |
| 20260504002357 | 65 | 93 | 0.9 | 2.6 | 0.00 | 0.00 | 0.00 | 42 | 1013.9 |
| 20260504001855 | 66 | 66 | 0.9 | 1.7 | 0.00 | 0.00 | 0.00 | 40 | 1014.0 |
| 20260504001352 | 66 | 92 | 0.9 | 1.7 | 0.00 | 0.00 | 0.00 | 40 | 1014.0 |
| 20260504000848 | 66 | 181 | 0.0 | 1.7 | 0.00 | 0.00 | 0.00 | 39 | 1013.8 |
| 20260504000346 | 66 | 170 | 0.9 | 1.7 | 0.00 | 0.00 | 0.00 | 38 | 1014.1 |
| 20260503235843 | 67 | 76 | 1.7 | 1.7 | 0.00 | 0.00 | 0.00 | 39 | 1014.0 |
| 20260503235341 | 67 | 84 | 0.9 | 1.7 | 0.00 | 0.00 | 0.00 | 38 | 1014.3 |
| 20260503234838 | 67 | 243 | 0.0 | 1.7 | 0.00 | 0.00 | 0.00 | 37 | 1014.0 |
| 20260503234336 | 68 | 59 | 0.0 | 1.7 | 0.00 | 0.00 | 0.00 | 37 | 1014.1 |
| 20260503233833 | 69 | 255 | 0.0 | 1.7 | 0.00 | 0.00 | 0.00 | 34 | 1014.0 |
| 20260503233329 | 71 | 131 | 0.9 | 1.7 | 0.00 | 0.00 | 0.00 | 34 | 1014.3 |
| 20260503232826 | 71 | 115 | 0.9 | 1.7 | 0.00 | 0.00 | 0.00 | 32 | 1014.3 |
| 20260503232323 | 71 | 95 | 0.0 | 1.7 | 0.00 | 0.00 | 0.00 | 33 | 1014.5 |
| 20260503231821 | 71 | 253 | 1.7 | 3.5 | 0.00 | 0.00 | 0.00 | 31 | 1014.5 |
| 20260503231318 | 71 | 257 | 1.7 | 3.5 | 0.00 | 0.00 | 0.00 | 31 | 1014.6 |
| 20260503230813 | 71 | 86 | 0.9 | 2.6 | 0.00 | 0.00 | 0.00 | 31 | 1014.7 |
| 20260503230311 | 71 | 273 | 2.6 | 3.5 | 0.00 | 0.00 | 0.00 | 30 | 1014.6 |
| 20260503225808 | 71 | 204 | 1.7 | 3.5 | 0.00 | 0.00 | 0.00 | 31 | 1014.8 |
| 20260503225304 | 71 | 232 | 1.7 | 1.7 | 0.00 | 0.00 | 0.00 | 32 | 1014.9 |
| 20260503224800 | 72 | 101 | 1.7 | 2.6 | 0.00 | 0.00 | 0.00 | 31 | 1014.7 |
| 20260503224258 | 71 | 66 | 0.9 | 2.6 | 0.00 | 0.00 | 0.00 | 30 | 1014.9 |
| 20260503223755 | 71 | 113 | 1.7 | 3.5 | 0.00 | 0.00 | 0.00 | 31 | 1014.8 |
| 20260503223253 | 71 | 96 | 1.7 | 1.7 | 0.00 | 0.00 | 0.00 | 31 | 1014.8 |
| 20260503222749 | 71 | 145 | 0.9 | 5.2 | 0.00 | 0.00 | 0.00 | 31 | 1015.1 |
| 20260503222247 | 71 | 242 | 1.7 | 4.3 | 0.00 | 0.00 | 0.00 | 29 | 1015.0 |
| 20260503221745 | 71 | 74 | 1.7 | 2.6 | 0.00 | 0.00 | 0.00 | 29 | 1015.0 |
| 20260503221243 | 71 | 260 | 2.6 | 3.5 | 0.00 | 0.00 | 0.00 | 33 | 1015.0 |
| 20260503220739 | 71 | 201 | 1.7 | 2.6 | 0.00 | 0.00 | 0.00 | 30 | 1015.3 |
| 20260503220236 | 72 | 316 | 1.7 | 5.2 | 0.00 | 0.00 | 0.00 | 32 | 1015.3 |
| 20260503215733 | 73 | 112 | 1.7 | 2.6 | 0.00 | 0.00 | 0.00 | 30 | 1015.2 |
| 20260503215230 | 72 | 111 | 1.7 | 2.6 | 0.00 | 0.00 | 0.00 | 30 | 1015.5 |
| 20260503214728 | 73 | 261 | 1.7 | 2.6 | 0.00 | 0.00 | 0.00 | 29 | 1015.6 |
| 20260503214224 | 73 | 190 | 0.0 | 2.6 | 0.00 | 0.00 | 0.00 | 31 | 1015.7 |
| 20260503213723 | 72 | 81 | 1.7 | 2.6 | 0.00 | 0.00 | 0.00 | 30 | 1015.5 |
| 20260503213219 | 72 | 264 | 0.0 | 3.5 | 0.00 | 0.00 | 0.00 | 29 | 1015.8 |
| 20260503212716 | 72 | 6 | 0.0 | 3.5 | 0.00 | 0.00 | 0.00 | 29 | 1015.8 |
| 20260503212214 | 72 | 152 | 4.3 | 7.0 | 0.00 | 0.00 | 0.00 | 28 | 1015.8 |
| 20260503211712 | 71 | 338 | 0.9 | 3.5 | 0.00 | 0.00 | 0.00 | 32 | 1015.9 |
| 20260503211207 | 71 | 124 | 1.7 | 2.6 | 0.00 | 0.00 | 0.00 | 32 | 1016.1 |
| 20260503210703 | 71 | 275 | 0.9 | 3.5 | 0.00 | 0.00 | 0.00 | 31 | 1016.3 |
| 20260503210201 | 72 | 204 | 3.5 | 4.3 | 0.00 | 0.00 | 0.00 | 29 | 1016.3 |
| 20260503205655 | 73 | 300 | 4.3 | 7.0 | 0.00 | 0.00 | 0.00 | 29 | 1016.5 |
| 20260503205152 | 72 | 155 | 0.0 | 1.7 | 0.00 | 0.00 | 0.00 | 30 | 1016.6 |
| 20260503204648 | 72 | 197 | 1.7 | 1.7 | 0.00 | 0.00 | 0.00 | 30 | 1016.5 |
| 20260503204147 | 71 | 128 | 1.7 | 3.5 | 0.00 | 0.00 | 0.00 | 32 | 1016.7 |
| 20260503203643 | 72 | 344 | 0.0 | 5.2 | 0.00 | 0.00 | 0.00 | 30 | 1016.8 |
| 20260503203141 | 72 | 146 | 0.0 | 2.6 | 0.00 | 0.00 | 0.00 | 33 | 1016.8 |
| 20260503202638 | 71 | 205 | 0.9 | 1.7 | 0.00 | 0.00 | 0.00 | 32 | 1016.9 |
| 20260503202136 | 71 | 308 | 1.7 | 2.6 | 0.00 | 0.00 | 0.00 | 33 | 1017.0 |
| 20260503201634 | 71 | 212 | 1.7 | 1.7 | 0.00 | 0.00 | 0.00 | 31 | 1016.9 |
| 20260503201131 | 70 | 191 | 1.7 | 4.3 | 0.00 | 0.00 | 0.00 | 30 | 1017.1 |
| 20260503200627 | 70 | 128 | 5.2 | 9.6 | 0.00 | 0.00 | 0.00 | 29 | 1017.3 |
| 20260503200124 | 70 | 343 | 0.9 | 4.3 | 0.00 | 0.00 | 0.00 | 32 | 1017.4 |
| 20260503195621 | 70 | 210 | 0.0 | 4.3 | 0.00 | 0.00 | 0.00 | 33 | 1017.5 |
| 20260503195118 | 70 | 281 | 1.7 | 2.6 | 0.00 | 0.00 | 0.00 | 31 | 1017.8 |
| 20260503194616 | 69 | 8 | 2.6 | 2.6 | 0.00 | 0.00 | 0.00 | 32 | 1017.6 |
| 20260503194116 | 69 | 26 | 0.9 | 3.5 | 0.00 | 0.00 | 0.00 | 35 | 1018.0 |
| 20260503193613 | 68 | 142 | 2.6 | 3.5 | 0.00 | 0.00 | 0.00 | 30 | 1018.1 |
| 20260503193108 | 68 | 219 | 3.5 | 3.5 | 0.00 | 0.00 | 0.00 | 31 | 1018.1 |
| 20260503192604 | 69 | 64 | 1.7 | 6.1 | 0.00 | 0.00 | 0.00 | 30 | 1018.1 |
| 20260503192100 | 68 | 307 | 0.0 | 5.2 | 0.00 | 0.00 | 0.00 | 36 | 1018.2 |
| 20260503191557 | 69 | 145 | 0.0 | 2.6 | 0.00 | 0.00 | 0.00 | 33 | 1018.2 |
| 20260503191053 | 68 | 291 | 0.9 | 3.5 | 0.00 | 0.00 | 0.00 | 36 | 1018.3 |
| 20260503190551 | 67 | 104 | 5.2 | 5.2 | 0.00 | 0.00 | 0.00 | 33 | 1018.6 |
| 20260503190048 | 67 | 106 | 2.6 | 5.2 | 0.00 | 0.00 | 0.00 | 33 | 1018.5 |
| 20260503185544 | 67 | 110 | 5.2 | 8.7 | 0.00 | 0.00 | 0.00 | 33 | 1018.6 |
| 20260503185044 | 68 | 114 | 2.6 | 3.5 | 0.00 | 0.00 | 0.00 | 36 | 1018.6 |
| 20260503184540 | 67 | 36 | 0.0 | 3.5 | 0.00 | 0.00 | 0.00 | 31 | 1018.7 |
| 20260503184037 | 67 | 314 | 1.7 | 5.2 | 0.00 | 0.00 | 0.00 | 36 | 1018.9 |
| 20260503183534 | 67 | 122 | 2.6 | 7.8 | 0.00 | 0.00 | 0.00 | 33 | 1018.8 |
| 20260503183031 | 67 | 177 | 2.6 | 3.5 | 0.00 | 0.00 | 0.00 | 33 | 1019.0 |
| 20260503182529 | 66 | 220 | 1.7 | 1.7 | 0.00 | 0.00 | 0.00 | 34 | 1018.9 |
| 20260503182027 | 66 | 305 | 1.7 | 3.5 | 0.00 | 0.00 | 0.00 | 33 | 1018.9 |
| 20260503181523 | 66 | 79 | 1.7 | 5.2 | 0.00 | 0.00 | 0.00 | 32 | 1019.1 |
| 20260503181020 | 66 | 342 | 1.7 | 4.3 | 0.00 | 0.00 | 0.00 | 35 | 1019.1 |
| 20260503180517 | 66 | 129 | 0.9 | 3.5 | 0.00 | 0.00 | 0.00 | 33 | 1019.1 |
| 20260503180014 | 65 | 171 | 1.7 | 7.0 | 0.00 | 0.00 | 0.00 | 35 | 1019.3 |
| 20260503175512 | 64 | 111 | 3.5 | 5.2 | 0.00 | 0.00 | 0.00 | 33 | 1019.3 |
| 20260503175008 | 64 | 109 | 7.0 | 7.8 | 0.00 | 0.00 | 0.00 | 33 | 1019.3 |
| 20260503174506 | 65 | 110 | 3.5 | 7.8 | 0.00 | 0.00 | 0.00 | 31 | 1019.5 |
| 20260503174002 | 64 | 332 | 1.7 | 1.7 | 0.00 | 0.00 | 0.00 | 37 | 1019.5 |
| 20260503173457 | 64 | 68 | 1.7 | 4.3 | 0.00 | 0.00 | 0.00 | 33 | 1019.6 |
| 20260503172954 | 64 | 121 | 3.5 | 6.1 | 0.00 | 0.00 | 0.00 | 36 | 1019.7 |
| 20260503172452 | 64 | 66 | 1.7 | 3.5 | 0.00 | 0.00 | 0.00 | 33 | 1019.7 |
| 20260503171948 | 64 | 128 | 1.7 | 4.3 | 0.00 | 0.00 | 0.00 | 41 | 1019.8 |
| 20260503171445 | 63 | 125 | 1.7 | 6.1 | 0.00 | 0.00 | 0.00 | 36 | 1020.0 |
| 20260503170942 | 63 | 106 | 2.6 | 4.3 | 0.00 | 0.00 | 0.00 | 35 | 1020.0 |
| 20260503170438 | 63 | 75 | 1.7 | 4.3 | 0.00 | 0.00 | 0.00 | 38 | 1020.2 |
| 20260503150831 | 59 | 272 | 1.7 | 1.7 | 0.00 | 0.00 | 0.00 | 37 | 1020.9 |
| 20260503150327 | 60 | 291 | 1.7 | 2.6 | 0.00 | 0.00 | 0.00 | 42 | 1021.0 |
| 20260503140251 | 57 | 129 | 3.5 | 5.2 | 0.00 | 0.00 | 0.00 | 60 | 1021.1 |
| 20260503131221 | 54 | 77 | 1.7 | 2.6 | 0.00 | 0.00 | 0.00 | 70 | 1020.8 |
| 20260503130718 | 55 | 82 | 3.5 | 5.2 | 0.00 | 0.00 | 0.00 | 71 | 1021.0 |
| 20260503130215 | 54 | 89 | 1.7 | 3.5 | 0.00 | 0.00 | 0.00 | 70 | 1021.0 |
| 20260503120141 | 48 | 68 | 1.7 | 2.6 | 0.00 | 0.00 | 0.00 | 92 | 1020.7 |
| 20260503110609 | 39 | 66 | 2.6 | 2.6 | 0.00 | 0.00 | 0.00 | 97 | 1019.7 |
| 20260503110106 | 39 | 66 | 2.6 | 2.6 | 0.00 | 0.00 | 0.00 | 97 | 1019.8 |
| 20260503090455 | 40 | 67 | 1.7 | 2.6 | 0.00 | 0.00 | 0.00 | 97 | 1019.4 |
| 20260503081422 | 41 | 67 | 1.7 | 2.6 | 0.00 | 0.00 | 0.00 | 97 | 1019.3 |
| 20260503080919 | 41 | 89 | 1.7 | 1.7 | 0.00 | 0.00 | 0.00 | 97 | 1019.2 |
| 20260503080415 | 41 | 89 | 1.7 | 1.7 | 0.00 | 0.00 | 0.00 | 97 | 1019.3 |
| 20260503072852 | 42 | 83 | 2.6 | 2.6 | 0.00 | 0.00 | 0.00 | 97 | 1019.1 |
| 20260503072349 | 42 | 80 | 1.7 | 1.7 | 0.00 | 0.00 | 0.00 | 96 | 1019.0 |
| 20260503071845 | 42 | 82 | 1.7 | 1.7 | 0.00 | 0.00 | 0.00 | 96 | 1019.3 |
| 20260503071342 | 42 | 88 | 1.7 | 1.7 | 0.00 | 0.00 | 0.00 | 96 | 1019.1 |
| 20260503070839 | 42 | 85 | 1.7 | 1.7 | 0.00 | 0.00 | 0.00 | 96 | 1019.2 |
| 20260503070337 | 42 | 80 | 2.6 | 2.6 | 0.00 | 0.00 | 0.00 | 96 | 1019.0 |
| 20260503060308 | 44 | 91 | 1.7 | 1.7 | 0.00 | 0.00 | 0.00 | 96 | 1019.2 |